MSC Divina — 3FFA5 — position and weather

sailwx.info

Track history (hours):
 
Tides and Currents Weather Stations Pressure Air Temp Water Temp Dewpoint Dewpoint Depression Visibility Wind Speed Wind Dir Waves Ship Positions

MSC Divina

Last reported at 2018-Feb-22 04:16 UTC. Time now 2018-Feb-22 08:56 UTC.
Position N 14°49' W 060°44'.

Length 333 m; draft 8.6 m.

Type: Passenger vessel. MMSI: 373178000.

Date/timePositionNaut miles runAvg speedWind from/ knotsBaromVisibWave heightAir tempDewpointWater temp
2018-Feb-22 04:16N 14°49' W 060°44'616.3
2018-Feb-22 03:56N 14°44' W 060°41'1017.5
2018-Feb-22 03:20N 14°35' W 060°35'617.6
2018-Feb-22 02:59N 14°30' W 060°32'26 1.0
2018-Feb-21 00:29N 14°10' W 060°50'610.3
2018-Feb-20 23:52N 14°14' W 060°54'512.4
2018-Feb-20 23:30N 14°17' W 060°58'814.1
2018-Feb-20 22:56N 14°23' W 061°03'814.5
2018-Feb-20 22:24N 14°29' W 061°09'713.0
2018-Feb-20 21:51N 14°36' W 061°06'1 0.1
2018-Feb-20 11:12N 14°36' W 061°05'312.5
2018-Feb-20 10:57N 14°36' W 061°08'1116.6
2018-Feb-20 10:18N 14°43' W 061°16'4017.3
2018-Feb-20 08:00N 15°17' W 061°38'6414.3
2018-Feb-20 03:33N 16°12' W 062°12'113.7
2018-Feb-20 03:30N 16°12' W 062°12'713.3
2018-Feb-20 02:59N 16°18' W 062°17'613.0
2018-Feb-20 02:30N 16°23' W 062°20'713.1
2018-Feb-20 02:00N 16°29' W 062°24'713.1
2018-Feb-20 01:30N 16°34' W 062°27'713.4
2018-Feb-20 01:00N 16°40' W 062°31'3313.2
2018-Feb-19 22:32N 17°10' W 062°45'010.1
2018-Feb-19 22:30N 17°10' W 062°45'7 0.6
2018-Feb-19 10:06N 17°17' W 062°43'1110.4
2018-Feb-19 09:01N 17°19' W 062°55'413.1
2018-Feb-19 08:43N 17°22' W 062°58'612.5
2018-Feb-19 08:13N 17°25' W 063°03'512.9
2018-Feb-19 07:48N 17°30' W 063°05'413.8
2018-Feb-19 07:29N 17°35' W 063°06'713.9
2018-Feb-19 06:58N 17°42' W 063°08'713.5
2018-Feb-19 06:26N 17°46' W 063°14'613.2
2018-Feb-19 05:58N 17°48' W 063°20'613.2
2018-Feb-19 05:29N 17°50' W 063°26'713.1
2018-Feb-19 04:57N 17°53' W 063°33'612.8
2018-Feb-19 04:30N 17°54' W 063°39'712.7
2018-Feb-19 03:55N 17°57' W 063°46'41710.5
2018-Feb-17 12:00N 21°42' W 070°00'58717.4 050 / 221023.7 5.4 24.018.025.0
2018-Feb-16 02:18N 25°59' W 079°38'619.3
2018-Feb-16 02:00N 25°56' W 079°43'1019.3
2018-Feb-16 01:30N 25°52' W 079°53'918.9
2018-Feb-16 01:00N 25°48' W 080°02'611.2
2018-Feb-16 00:30N 25°46' W 080°08'2 4.5
2018-Feb-16 00:00N 25°47' W 080°10'0 0.0
2018-Feb-15 23:29N 25°47' W 080°10'0 0.0
2018-Feb-15 22:56N 25°47' W 080°10'0 0.0
2018-Feb-15 22:26N 25°47' W 080°10'0 0.0
2018-Feb-15 21:59N 25°47' W 080°10'0 0.0
2018-Feb-15 21:29N 25°47' W 080°10'0 0.0
2018-Feb-15 20:59N 25°47' W 080°10'0 0.0
2018-Feb-15 20:29N 25°47' W 080°10'0 0.0
2018-Feb-15 19:59N 25°47' W 080°10'0 0.0
2018-Feb-15 19:26N 25°47' W 080°10'0 0.0
2018-Feb-15 18:59N 25°47' W 080°10'0 0.0
2018-Feb-15 18:29N 25°47' W 080°10'0 0.0
2018-Feb-15 17:59N 25°47' W 080°10'0 0.0
2018-Feb-15 17:29N 25°47' W 080°10'0 0.0
2018-Feb-15 16:59N 25°47' W 080°10'0 0.0
2018-Feb-15 16:29N 25°47' W 080°10'0 0.0
2018-Feb-15 15:59N 25°47' W 080°10'0 0.0
2018-Feb-15 15:28N 25°47' W 080°10'0 0.0
2018-Feb-15 14:58N 25°47' W 080°10'0 0.0
2018-Feb-15 14:28N 25°47' W 080°10'0 0.0
2018-Feb-15 13:58N 25°47' W 080°10'0 0.0
2018-Feb-15 13:30N 25°47' W 080°10'0 0.0
2018-Feb-15 13:00N 25°47' W 080°10'0 0.0
2018-Feb-15 12:30N 25°47' W 080°10'0 0.0
2018-Feb-15 12:00N 25°47' W 080°10'0 0.0
2018-Feb-15 11:30N 25°47' W 080°10'0 0.0
2018-Feb-15 11:00N 25°47' W 080°10'1 1.0
2018-Feb-15 10:30N 25°47' W 080°11'2 4.7
2018-Feb-15 10:00N 25°46' W 080°08'510.8
2018-Feb-15 09:31N 25°46' W 080°03'5 9.7
2018-Feb-15 09:01N 25°48' W 079°58'5 9.9
2018-Feb-15 08:31N 25°51' W 079°54'5 9.9
2018-Feb-15 08:01N 25°54' W 079°49'5 9.6
2018-Feb-15 07:30N 25°56' W 079°44'5 9.7
2018-Feb-15 07:00N 25°59' W 079°40'510.0
2018-Feb-15 06:29N 26°02' W 079°35'510.1
2018-Feb-15 06:00N 26°04' W 079°30'510.1
2018-Feb-15 05:30N 26°07' W 079°26'510.3
2018-Feb-15 05:00N 26°10' W 079°21'25 1.7
2018-Feb-14 14:09N 25°45' W 079°24'319.7
2018-Feb-14 14:00N 25°42' W 079°26'1019.8
2018-Feb-14 13:30N 25°33' W 079°30'3322.1
2018-Feb-14 12:00N 25°00' W 079°36'43818.2 110 / 281028.7 5.4 24.018.025.0
2018-Feb-13 12:00N 20°42' W 086°00'   090 / 251021.6 5.4 26.023.226.0
Track history (hours):
 
Tides and Currents Weather Stations Pressure Air Temp Water Temp Dewpoint Dewpoint Depression Visibility Wind Speed Wind Dir Waves Ship Positions

MSC Divina

Last reported at 2018-Feb-22 04:16 UTC. Time now 2018-Feb-22 08:56 UTC.
Position N 14°49' W 060°44'.

Length 333 m; draft 8.6 m.

Type: Passenger vessel. MMSI: 373178000.

Date/timePositionNaut miles runAvg speedWind from/ knotsBaromVisibWave heightAir tempDewpointWater temp
2018-Feb-22 04:16N 14°49' W 060°44'616.3
2018-Feb-22 03:56N 14°44' W 060°41'1017.5
2018-Feb-22 03:20N 14°35' W 060°35'617.6
2018-Feb-22 02:59N 14°30' W 060°32'26 1.0
2018-Feb-21 00:29N 14°10' W 060°50'610.3
2018-Feb-20 23:52N 14°14' W 060°54'512.4
2018-Feb-20 23:30N 14°17' W 060°58'814.1
2018-Feb-20 22:56N 14°23' W 061°03'814.5
2018-Feb-20 22:24N 14°29' W 061°09'713.0
2018-Feb-20 21:51N 14°36' W 061°06'1 0.1
2018-Feb-20 11:12N 14°36' W 061°05'312.5
2018-Feb-20 10:57N 14°36' W 061°08'1116.6
2018-Feb-20 10:18N 14°43' W 061°16'4017.3
2018-Feb-20 08:00N 15°17' W 061°38'6414.3
2018-Feb-20 03:33N 16°12' W 062°12'113.7
2018-Feb-20 03:30N 16°12' W 062°12'713.3
2018-Feb-20 02:59N 16°18' W 062°17'613.0
2018-Feb-20 02:30N 16°23' W 062°20'713.1
2018-Feb-20 02:00N 16°29' W 062°24'713.1
2018-Feb-20 01:30N 16°34' W 062°27'713.4
2018-Feb-20 01:00N 16°40' W 062°31'3313.2
2018-Feb-19 22:32N 17°10' W 062°45'010.1
2018-Feb-19 22:30N 17°10' W 062°45'7 0.6
2018-Feb-19 10:06N 17°17' W 062°43'1110.4
2018-Feb-19 09:01N 17°19' W 062°55'413.1
2018-Feb-19 08:43N 17°22' W 062°58'612.5
2018-Feb-19 08:13N 17°25' W 063°03'512.9
2018-Feb-19 07:48N 17°30' W 063°05'413.8
2018-Feb-19 07:29N 17°35' W 063°06'713.9
2018-Feb-19 06:58N 17°42' W 063°08'713.5
2018-Feb-19 06:26N 17°46' W 063°14'613.2
2018-Feb-19 05:58N 17°48' W 063°20'613.2
2018-Feb-19 05:29N 17°50' W 063°26'713.1
2018-Feb-19 04:57N 17°53' W 063°33'612.8
2018-Feb-19 04:30N 17°54' W 063°39'712.7
2018-Feb-19 03:55N 17°57' W 063°46'41710.5
2018-Feb-17 12:00N 21°42' W 070°00'58717.4 050 / 221023.7 5.4 24.018.025.0
2018-Feb-16 02:18N 25°59' W 079°38'619.3
2018-Feb-16 02:00N 25°56' W 079°43'1019.3
2018-Feb-16 01:30N 25°52' W 079°53'918.9
2018-Feb-16 01:00N 25°48' W 080°02'611.2
2018-Feb-16 00:30N 25°46' W 080°08'2 4.5
2018-Feb-16 00:00N 25°47' W 080°10'0 0.0
2018-Feb-15 23:29N 25°47' W 080°10'0 0.0
2018-Feb-15 22:56N 25°47' W 080°10'0 0.0
2018-Feb-15 22:26N 25°47' W 080°10'0 0.0
2018-Feb-15 21:59N 25°47' W 080°10'0 0.0
2018-Feb-15 21:29N 25°47' W 080°10'0 0.0
2018-Feb-15 20:59N 25°47' W 080°10'0 0.0
2018-Feb-15 20:29N 25°47' W 080°10'0 0.0
2018-Feb-15 19:59N 25°47' W 080°10'0 0.0
2018-Feb-15 19:26N 25°47' W 080°10'0 0.0
2018-Feb-15 18:59N 25°47' W 080°10'0 0.0
2018-Feb-15 18:29N 25°47' W 080°10'0 0.0
2018-Feb-15 17:59N 25°47' W 080°10'0 0.0
2018-Feb-15 17:29N 25°47' W 080°10'0 0.0
2018-Feb-15 16:59N 25°47' W 080°10'0 0.0
2018-Feb-15 16:29N 25°47' W 080°10'0 0.0
2018-Feb-15 15:59N 25°47' W 080°10'0 0.0
2018-Feb-15 15:28N 25°47' W 080°10'0 0.0
2018-Feb-15 14:58N 25°47' W 080°10'0 0.0
2018-Feb-15 14:28N 25°47' W 080°10'0 0.0
2018-Feb-15 13:58N 25°47' W 080°10'0 0.0
2018-Feb-15 13:30N 25°47' W 080°10'0 0.0
2018-Feb-15 13:00N 25°47' W 080°10'0 0.0
2018-Feb-15 12:30N 25°47' W 080°10'0 0.0
2018-Feb-15 12:00N 25°47' W 080°10'0 0.0
2018-Feb-15 11:30N 25°47' W 080°10'0 0.0
2018-Feb-15 11:00N 25°47' W 080°10'1 1.0
2018-Feb-15 10:30N 25°47' W 080°11'2 4.7
2018-Feb-15 10:00N 25°46' W 080°08'510.8
2018-Feb-15 09:31N 25°46' W 080°03'5 9.7
2018-Feb-15 09:01N 25°48' W 079°58'5 9.9
2018-Feb-15 08:31N 25°51' W 079°54'5 9.9
2018-Feb-15 08:01N 25°54' W 079°49'5 9.6
2018-Feb-15 07:30N 25°56' W 079°44'5 9.7
2018-Feb-15 07:00N 25°59' W 079°40'510.0
2018-Feb-15 06:29N 26°02' W 079°35'510.1
2018-Feb-15 06:00N 26°04' W 079°30'510.1
2018-Feb-15 05:30N 26°07' W 079°26'510.3
2018-Feb-15 05:00N 26°10' W 079°21'25 1.7
2018-Feb-14 14:09N 25°45' W 079°24'319.7
2018-Feb-14 14:00N 25°42' W 079°26'1019.8
2018-Feb-14 13:30N 25°33' W 079°30'3322.1
2018-Feb-14 12:00N 25°00' W 079°36'43818.2 110 / 281028.7 5.4 24.018.025.0
2018-Feb-13 12:00N 20°42' W 086°00'   090 / 251021.6 5.4 26.023.226.0

Dump ship's entire track history